Location: Unspecified
(43.4354°N, 0.0000°E)
Time: 05:41:22
(UTC+00:00)

S-56A Canister/Altair - Pass Details

Date: 04 July 2019
Orbit: 632 x 2500 km, 38.9° (Epoch: 17 July)

Event Time Altitude Azimuth Distance (km) Brightness Sun altitude
Rises 10:55:36 0° 221° (SW) 6,149 12.2 65.0°
Reaches altitude 10° 10:59:54 10° 216° (SW) 5,157 12.0 65.5°
Maximum altitude 11:13:32 44° 151° (SSE) 2,910 12.0 66.9°
Drops below altitude 10° 11:24:36 10° 85° (E) 4,228 11.6 67.9°
Sets 11:27:44 0° 79° (E) 4,989 11.7 68.1°
